Location: Madrid
(40.4000°N, 3.6830°W)
Time: 16:17:13
(UTC+02:00)

ISS - Pass Details

Date: 11 September 2019
Orbit: 411 x 421 km, 51.6° (Epoch: 18 September)

Event Time Altitude Azimuth Distance (km) Brightness Sun altitude
Exits shadow 07:02:59 - 311° (NW) 2,200 -0.4 -9.9°
Reaches altitude 10° 07:04:46 10° 318° (NW) 1,491 -1.2 -9.5°
Maximum altitude 07:07:58 42° 31° (NNE) 607 -2.5 -8.9°
Drops below altitude 10° 07:11:10 10° 104° (ESE) 1,490 0.2 -8.3°
Sets 07:13:20 0° 111° (ESE) 2,352 1.1 -7.9°
